Tracking 35048 objects as of 19-Aug-2026
HD Live streaming from Space Station
objects crossing your sky now

FLOCK 4V 3


FLOCK 4V 3 is no longer on orbit
FLOCK 4V 3 is classified as:


NORAD ID: 46322
Int'l Code: 2020-061BC
Launch date: September 3, 2020
Source: United States (US)
Launch site: FRENCH GUIANA (FRGUI)
Decay date: 2024-04-11
Your satellite tracking list
Your tracking list is empty




NASA's NSSDC Master Catalog

Two Line Element Set (TLE):
1 46322U 20061BC  24099.04543804  .15951235  26134-5  54385-3 0  9998
2 46322  97.3614 179.9181 0010348 234.0005 126.0338 16.43694821199618
Source of the keplerian elements: AFSPC